Weather History for Lexington, KY

Change the Weather History Date:

Tuesday, October 9, 2012

  Actual Average Record
Temperature  
Mean Temperature 48 °F 59 °F  
Max Temperature 60 °F 70 °F 91 °F (1939)
Min Temperature 35 °F 49 °F 31 °F (2000)
Degree Days  
Heating Degree Days 17 7  
Month to date heating degree days 79 53  
Since 1 July heating degree days 153 107  
Cooling Degree Days 0 1  
Month to date cooling degree days 1 13  
Year to date cooling degree days 1354 1176  
Moisture  
Dew Point 39 °F    
Average Humidity 73    
Maximum Humidity 100    
Minimum Humidity 46    
Precipitation  
Precipitation 0.00 in 0.10 in 1.56 in (1999)
Month to date precipitation 0.37 0.88  
Year to date precipitation 33.40 35.46  
Snow  
Snow 0.00 in 0.00 in 0.00 in ()
Month to date snowfall 0.0 0.0  
Since 1 July snowfall 0.0 0.0  
Since 1 September snowfall 0.0 0.0  
Snow Depth 0.00 in    
Sea Level Pressure  
Sea Level Pressure 30.14 in    
Wind  
Wind Speed 6 mph (SSE)    
Max Wind Speed 13 mph    
Max Gust Speed 31 mph    
Visibility 7 miles    
Events Fog    
T = Trace of Precipitation, MM = Missing Value Source: NWS Daily Summary

Daily Weather History Graph

Daily Weather History Graph

Search for Another Location

Airport:

Trip Planner

Search our weather history database for the weather conditions in past years. The results will help you decide how hot, cold, wet, or windy it might be!

Date:

Astronomy

Oct. 09, 2012 Rise Set
Actual Time 7:41 AM EDT 7:08 PM EDT
Civil Twilight 7:15 AM EDT 7:34 PM EDT
Nautical Twilight 6:44 AM EDT 8:05 PM EDT
Astronomical Twilight 6:14 AM EDT 8:35 PM EDT
Moon 1:23 AM EDT (10/9) 3:30 PM EDT (10/9)
Length of Visible Light 12h 19m
Length of Day
11h 26m
Last Quarter, 37% of the Moon is Illuminated
Oct 9
Last Quarter
Oct 15
New
Oct 21
First Quarter
Oct 29
Full
Nov 6
Last Quarter

Hourly Weather History & Observations

Time (EDT) Temp. Windchill Dew Point Humidity Pressure Visibility Wind Dir Wind Speed Gust Speed Precip Events Conditions
12:54 AM 41.0 °F 37.1 °F 39.0 °F 93% 30.18 in 10.0 mi SE 5.8 mph - N/A   Clear
1:54 AM 39.9 °F 37.8 °F 39.0 °F 97% 30.18 in 10.0 mi SSE 3.5 mph - N/A   Clear
2:54 AM 39.0 °F 35.7 °F 37.9 °F 96% 30.18 in 10.0 mi SSE 4.6 mph - N/A   Clear
3:54 AM 37.9 °F 33.5 °F 37.0 °F 97% 30.17 in 8.0 mi SSE 5.8 mph - N/A   Clear
4:54 AM 37.0 °F 34.5 °F 37.0 °F 100% 30.17 in 5.0 mi SSE 3.5 mph - N/A   Clear
5:54 AM 37.9 °F 35.5 °F 37.0 °F 97% 30.17 in 6.0 mi SSE 3.5 mph - N/A   Clear
6:28 AM 35.6 °F 32.8 °F 35.6 °F 100% 30.17 in 1.5 mi SSE 3.5 mph - N/A   Clear
6:37 AM 35.6 °F 31.7 °F 35.6 °F 100% 30.17 in 0.5 mi SE 4.6 mph - N/A Fog Fog
6:47 AM 37.4 °F 34.9 °F 37.4 °F 100% 30.17 in 2.0 mi SSE 3.5 mph - N/A   Clear
6:54 AM 37.0 °F 33.3 °F 37.0 °F 100% 30.19 in 5.0 mi SSE 4.6 mph - N/A   Clear
7:14 AM 35.6 °F 32.8 °F 35.6 °F 100% 30.18 in 1.8 mi SSE 3.5 mph - N/A   Clear
7:24 AM 35.6 °F 30.7 °F 35.6 °F 100% 30.18 in 0.5 mi SSE 5.8 mph - N/A Fog Fog
7:36 AM 35.6 °F 30.7 °F 35.6 °F 100% 30.17 in 1.2 mi SSE 5.8 mph - N/A   Clear
7:49 AM 35.6 °F 30.7 °F 35.6 °F 100% 30.18 in 2.0 mi SE 5.8 mph - N/A   Clear
7:54 AM 35.1 °F 30.1 °F 35.1 °F 100% 30.19 in 2.0 mi SE 5.8 mph - N/A   Clear
8:02 AM 35.6 °F 30.7 °F 35.6 °F 100% 30.18 in 10.0 mi SSE 5.8 mph - N/A   Clear
8:54 AM 39.0 °F 34.8 °F 39.0 °F 100% 30.20 in 10.0 mi SSE 5.8 mph - N/A   Clear
9:54 AM 45.0 °F 43.5 °F 43.0 °F 93% 30.20 in 10.0 mi SSE 3.5 mph - N/A   Clear
10:54 AM 51.1 °F - 44.1 °F 77% 30.19 in 10.0 mi SSE 5.8 mph - N/A   Clear
11:54 AM 54.0 °F - 42.1 °F 64% 30.18 in 10.0 mi Variable 5.8 mph - N/A   Clear
12:54 PM 55.0 °F - 41.0 °F 59% 30.16 in 10.0 mi Calm Calm - N/A   Clear
1:54 PM 57.0 °F - 39.9 °F 53% 30.12 in 10.0 mi SSE 6.9 mph - N/A   Clear
2:54 PM 57.9 °F - 39.0 °F 49% 30.10 in 10.0 mi Variable 5.8 mph - N/A   Clear
3:54 PM 59.0 °F - 39.0 °F 48% 30.07 in 10.0 mi SSW 6.9 mph - N/A   Clear
4:54 PM 60.1 °F - 39.9 °F 47% 30.05 in 10.0 mi SSW 9.2 mph - N/A   Clear
5:54 PM 59.0 °F - 39.9 °F 49% 30.05 in 10.0 mi SSW 9.2 mph - N/A   Clear
6:54 PM 55.0 °F - 37.9 °F 53% 30.04 in 10.0 mi SSW 5.8 mph - N/A   Clear
7:54 PM 51.1 °F - 39.9 °F 66% 30.04 in 10.0 mi South 6.9 mph - N/A   Clear
8:54 PM 50.0 °F - 41.0 °F 71% 30.04 in 10.0 mi South 6.9 mph - N/A   Clear
9:54 PM 48.0 °F - 42.1 °F 80% 30.04 in 10.0 mi SSE 8.1 mph - N/A   Clear
10:54 PM 48.0 °F - 43.0 °F 83% 30.03 in 10.0 mi South 8.1 mph - N/A   Clear
11:54 PM 46.9 °F - 43.0 °F 86% 30.01 in 10.0 mi South 9.2 mph - N/A   Clear